Albany, GA

12:44 PM EDT on April 23, 2018 (GMT -0400)
Southwest Georgia Regional

Weather History for KABY - October, 2012

Change the Weather History Date:

Wednesday, October 24, 2012

  Actual Average Record
Temperature  
Mean Temperature 71 °F 66 °F  
Max Temperature 85 °F 78 °F 91 °F (1984)
Min Temperature 56 °F 53 °F 33 °F (1987)
Degree Days  
Heating Degree Days 0 3  
Month to date heating degree days 9 24  
Since 1 July heating degree days 9 25  
Cooling Degree Days 6 3  
Month to date cooling degree days 122 127  
Year to date cooling degree days 2773 2483  
Growing Degree Days 20 (Base 50)    
Moisture  
Dew Point 58 °F    
Average Humidity 70    
Maximum Humidity 100    
Minimum Humidity 40    
Precipitation  
Precipitation 0.00 in 0.08 in 3.27 in (2008)
Month to date precipitation 0.51 2.01  
Year to date precipitation 26.89 41.05  
Sea Level Pressure  
Sea Level Pressure 30.11 in    
Wind  
Wind Speed 4 mph (ENE)    
Max Wind Speed 17 mph    
Max Gust Speed 25 mph    
Visibility 9 miles    
Events      
T = Trace of Precipitation, MM = Missing Value Source: NWS Daily Summary

Daily Weather History Graph

Daily Weather History Graph

Search for Another Location

Airport or City:

Astronomy

Oct. 24, 2012 Rise Set
Actual Time 7:46 AM EDT 6:54 PM EDT
Civil Twilight 7:21 AM EDT 7:19 PM EDT
Nautical Twilight 6:53 AM EDT 7:47 PM EDT
Astronomical Twilight 6:25 AM EDT 8:16 PM EDT
Moon 3:54 PM EDT (10/24) 2:58 AM EDT (10/24)
Length of Visible Light 11h 57m
Length of Day
11h 07m
Waxing Gibbous, 76% of the Moon is Illuminated
Oct 24
Waxing Gibbous
Oct 29
Full
Nov 6
Last Quarter
Nov 13
New
Nov 20
First Quarter

Hourly Weather History & Observations

Time (EDT) Temp. Heat Index Dew Point Humidity Pressure Visibility Wind Dir Wind Speed Gust Speed Precip Events Conditions
12:53 AM 62.1 °F - 57.0 °F 84% 30.13 in 10.0 mi Calm Calm - N/A   Clear
1:53 AM 60.1 °F - 55.9 °F 86% 30.13 in 10.0 mi Calm Calm - N/A   Clear
2:53 AM 59.0 °F - 57.0 °F 93% 30.12 in 10.0 mi Calm Calm - N/A   Clear
3:53 AM 57.9 °F - 55.9 °F 93% 30.11 in 10.0 mi Calm Calm - N/A   Clear
4:53 AM 57.0 °F - 55.9 °F 96% 30.11 in 9.0 mi Calm Calm - N/A   Clear
5:53 AM 57.0 °F - 55.0 °F 93% 30.12 in 8.0 mi Calm Calm - N/A   Clear
6:53 AM 55.9 °F - 55.0 °F 97% 30.14 in 7.0 mi Calm Calm - N/A   Clear
7:53 AM 57.0 °F - 55.9 °F 96% 30.16 in 5.0 mi Calm Calm - N/A   Clear
8:53 AM 62.1 °F - 60.1 °F 93% 30.17 in 6.0 mi NNE 3.5 mph - N/A   Clear
9:53 AM 66.9 °F - 61.0 °F 81% 30.18 in 10.0 mi ENE 6.9 mph - N/A   Clear
10:30 AM 71.6 °F - 62.6 °F 73% 30.18 in 10.0 mi ENE 6.9 mph - N/A   Clear
10:53 AM 73.0 °F - 63.0 °F 71% 30.17 in 10.0 mi NE 6.9 mph - N/A   Clear
12:53 PM 80.1 °F 80.7 °F 59.0 °F 48% 30.13 in 10.0 mi NE 6.9 mph 23.0 mph N/A   Mostly Cloudy
1:53 PM 82.0 °F 81.7 °F 57.0 °F 42% 30.09 in 10.0 mi East 9.2 mph - N/A   Partly Cloudy
2:53 PM 84.0 °F 83.3 °F 57.0 °F 40% 30.07 in 10.0 mi NE 11.5 mph - N/A   Scattered Clouds
3:53 PM 82.0 °F 81.7 °F 57.0 °F 42% 30.06 in 10.0 mi ENE 10.4 mph 25.3 mph N/A   Mostly Cloudy
5:53 PM 78.1 °F - 57.0 °F 48% 30.04 in 10.0 mi East 3.5 mph - N/A   Clear
6:53 PM 75.9 °F - 57.0 °F 52% 30.05 in 10.0 mi East 5.8 mph - N/A   Clear
7:53 PM 71.1 °F - 57.9 °F 63% 30.05 in 10.0 mi Calm Calm - N/A   Clear
8:53 PM 66.9 °F - 57.9 °F 73% 30.06 in 10.0 mi Calm Calm - N/A   Clear
9:53 PM 64.9 °F - 57.9 °F 78% 30.07 in 10.0 mi Calm Calm - N/A   Clear
10:53 PM 66.0 °F - 57.9 °F 75% 30.09 in 10.0 mi East 4.6 mph - N/A   Clear